This is the latest recevied weather packets stored in our database for station/object EA1JAV-11. If no packets are shown the sender has not sent any weather packets the latest 10 day(s).
| Time | Temp. | Humidity | Pressure | Rain* | Wind** | Luminosity | Snow |
|---|---|---|---|---|---|---|---|
| 1778038708 | 14.44° C | 50% | 991.4 hPa | - | - | - | - |
| 1778036908 | 14.44° C | 50% | 991.6 hPa | - | - | - | - |
| 1778035108 | 14.44° C | 50% | 991.6 hPa | - | - | - | - |
| 1778033308 | 14.44° C | 50% | 991.7 hPa | - | - | - | - |
| 1778031508 | 14.44° C | 50% | 991.9 hPa | - | - | - | - |
| 1778029708 | 15° C | 50% | 992.3 hPa | - | - | - | - |
| 1778027908 | 15° C | 50% | 992.6 hPa | - | - | - | - |
| 1778026107 | 15° C | 50% | 992.8 hPa | - | - | - | - |
| 1778024307 | 14.44° C | 50% | 992.9 hPa | - | - | - | - |
| 1778022507 | 15° C | 50% | 992.8 hPa | - | - | - | - |
| 1778020707 | 15.56° C | 50% | 992.8 hPa | - | - | - | - |
| 1778018907 | 15.56° C | 50% | 992.8 hPa | - | - | - | - |
| 1778017107 | 15.56° C | 50% | 992.8 hPa | - | - | - | - |
| 1778015307 | 15.56° C | 49% | 992.8 hPa | - | - | - | - |
| 1778013507 | 16.11° C | 49% | 992.7 hPa | - | - | - | - |
| 1778011707 | 16.11° C | 49% | 992.4 hPa | - | - | - | - |
| 1778009907 | 16.67° C | 48% | 992.1 hPa | - | - | - | - |
| 1778008107 | 17.22° C | 48% | 992 hPa | - | - | - | - |
| 1778006307 | 17.22° C | 48% | 991.7 hPa | - | - | - | - |
| 1778004507 | 17.78° C | 47% | 991.5 hPa | - | - | - | - |
| 1778002707 | 19.44° C | 46% | 991.6 hPa | - | - | - | - |
| 1778000907 | 18.33° C | 47% | 991.7 hPa | - | - | - | - |
| 1777999106 | 18.33° C | 47% | 991.5 hPa | - | - | - | - |
| 1777997306 | 18.89° C | 47% | 991.5 hPa | - | - | - | - |
| 1777995506 | 18.89° C | 47% | 991.4 hPa | - | - | - | - |
* Rain since midnight (hover to see other rain measurements)
** Current wind speed in m/s (hover to see current wind gust speed)